Year,Month,Day,Hour,Minute,Value (Times are PST for temperature in C)
2010,08,15,00,00,28.50
2010,08,15,00,01,28.50
2010,08,15,00,02,28.50
2010,08,15,00,03,28.50
2010,08,15,00,04,28.50
2010,08,15,00,05,28.40
2010,08,15,00,06,28.40
2010,08,15,00,07,28.40
2010,08,15,00,08,28.30
2010,08,15,00,09,28.20
2010,08,15,00,10,28.20
2010,08,15,00,11,28.10
2010,08,15,00,12,28.00
2010,08,15,00,13,27.90
2010,08,15,00,16,27.40
2010,08,15,00,17,27.30
2010,08,15,00,18,27.20
2010,08,15,00,19,27.10
2010,08,15,00,20,27.10
2010,08,15,00,21,27.10
2010,08,15,00,22,27.10
2010,08,15,00,23,27.20
2010,08,15,00,24,27.30
2010,08,15,00,25,27.40
2010,08,15,00,26,27.60
2010,08,15,00,27,27.70
2010,08,15,00,28,27.80
2010,08,15,00,29,27.90
2010,08,15,00,30,27.90
2010,08,15,00,31,27.90
2010,08,15,00,32,27.90
2010,08,15,00,33,27.80
2010,08,15,00,34,27.70
2010,08,15,00,35,27.60
2010,08,15,00,36,27.40
2010,08,15,00,37,27.20
2010,08,15,00,38,27.00
2010,08,15,00,39,26.90
2010,08,15,00,40,26.70
2010,08,15,00,41,26.60
2010,08,15,00,42,26.60
2010,08,15,00,43,26.50
2010,08,15,00,44,26.50
2010,08,15,00,45,26.60
2010,08,15,00,46,26.60
2010,08,15,00,47,26.70
2010,08,15,00,48,26.80
2010,08,15,00,49,26.80
2010,08,15,00,50,26.90
2010,08,15,00,51,27.00
2010,08,15,00,52,27.00
2010,08,15,00,53,27.10
2010,08,15,00,54,27.20
2010,08,15,00,55,27.20
2010,08,15,00,56,27.10
2010,08,15,00,57,26.90
2010,08,15,00,58,26.70
2010,08,15,00,59,26.40
2010,08,15,01,00,26.20
2010,08,15,01,01,26.00
2010,08,15,01,02,25.70
2010,08,15,01,03,25.50
2010,08,15,01,04,25.20
2010,08,15,01,05,25.00
2010,08,15,01,06,24.80
2010,08,15,01,07,24.70
2010,08,15,01,08,24.60
2010,08,15,01,09,24.40
2010,08,15,01,10,24.20
2010,08,15,01,11,24.00
2010,08,15,01,12,23.80
2010,08,15,01,13,23.70
2010,08,15,01,14,23.50
2010,08,15,01,15,23.40
2010,08,15,01,16,23.30
2010,08,15,01,17,23.30
2010,08,15,01,18,23.20
2010,08,15,01,19,23.20
2010,08,15,01,20,23.20
2010,08,15,01,21,23.20
2010,08,15,01,22,23.20
2010,08,15,01,23,23.30
2010,08,15,01,24,23.40
2010,08,15,01,25,23.40
2010,08,15,01,26,23.50
2010,08,15,01,27,23.50
2010,08,15,01,28,23.60
2010,08,15,01,29,23.60
2010,08,15,01,30,23.70
2010,08,15,01,31,23.70
2010,08,15,01,32,23.70
2010,08,15,01,33,23.80
2010,08,15,01,34,23.80
2010,08,15,01,35,23.80
2010,08,15,01,36,23.80
2010,08,15,01,37,23.80
2010,08,15,01,38,23.80
2010,08,15,01,39,23.80
2010,08,15,01,40,23.70
2010,08,15,01,41,23.70
2010,08,15,01,42,23.70
2010,08,15,01,43,23.60
2010,08,15,01,44,23.60
2010,08,15,01,45,23.60
2010,08,15,01,46,23.70
2010,08,15,01,47,23.70
2010,08,15,01,48,23.70
2010,08,15,01,49,23.70
2010,08,15,01,50,23.80
2010,08,15,01,51,23.80
2010,08,15,01,52,23.90
2010,08,15,01,53,24.00
2010,08,15,01,54,24.10
2010,08,15,01,55,24.10
2010,08,15,01,56,24.10
2010,08,15,01,57,24.10
2010,08,15,01,58,24.00
2010,08,15,01,59,24.00
2010,08,15,02,00,23.90
2010,08,15,02,01,23.90
2010,08,15,02,02,23.90
2010,08,15,02,03,23.80
2010,08,15,02,04,23.80
2010,08,15,02,05,23.80
2010,08,15,02,06,23.80
2010,08,15,02,07,23.70
2010,08,15,02,08,23.70
2010,08,15,02,09,23.70
2010,08,15,02,10,23.60
2010,08,15,02,11,23.60
2010,08,15,02,12,23.60
2010,08,15,02,13,23.50
2010,08,15,02,14,23.40
2010,08,15,02,15,23.40
2010,08,15,02,16,23.40
2010,08,15,02,17,23.30
2010,08,15,02,18,23.30
2010,08,15,02,19,23.30
2010,08,15,02,20,23.30
2010,08,15,02,21,23.30
2010,08,15,02,22,23.30
2010,08,15,02,23,23.30
2010,08,15,02,24,23.40
2010,08,15,02,25,23.40
2010,08,15,02,26,23.40
2010,08,15,02,27,23.50
2010,08,15,02,28,23.50
2010,08,15,02,29,23.60
2010,08,15,02,30,23.60
2010,08,15,02,31,23.60
2010,08,15,02,32,23.70
2010,08,15,02,33,23.70
2010,08,15,02,34,23.70
2010,08,15,02,35,23.80
2010,08,15,02,36,23.80
2010,08,15,02,37,23.90
2010,08,15,02,38,23.90
2010,08,15,02,39,24.00
2010,08,15,02,40,24.00
2010,08,15,02,41,24.10
2010,08,15,02,42,24.10
2010,08,15,02,43,24.20
2010,08,15,02,44,24.20
2010,08,15,02,45,24.20
2010,08,15,02,46,24.30
2010,08,15,02,47,24.30
2010,08,15,02,48,24.30
2010,08,15,02,49,24.30
2010,08,15,02,50,24.30
2010,08,15,02,51,24.30
2010,08,15,02,52,24.30
2010,08,15,02,53,24.30
2010,08,15,02,54,24.30
2010,08,15,02,55,24.20
2010,08,15,02,56,24.20
2010,08,15,02,57,24.20
2010,08,15,02,58,24.20
2010,08,15,02,59,24.10
2010,08,15,03,00,24.10
2010,08,15,03,01,24.10
2010,08,15,03,02,24.00
2010,08,15,03,03,24.00
2010,08,15,03,04,23.90
2010,08,15,03,05,23.90
2010,08,15,03,06,23.90
2010,08,15,03,07,23.80
2010,08,15,03,08,23.80
2010,08,15,03,09,23.70
2010,08,15,03,10,23.70
2010,08,15,03,11,23.70
2010,08,15,03,12,23.60
2010,08,15,03,13,23.60
2010,08,15,03,14,23.60
2010,08,15,03,15,23.60
2010,08,15,03,16,23.50
2010,08,15,03,17,23.50
2010,08,15,03,18,23.50
2010,08,15,03,19,23.50
2010,08,15,03,20,23.40
2010,08,15,03,21,23.40
2010,08,15,03,22,23.40
2010,08,15,03,23,23.40
2010,08,15,03,24,23.30
2010,08,15,03,25,23.30
2010,08,15,03,26,23.30
2010,08,15,03,27,23.30
2010,08,15,03,28,23.30
2010,08,15,03,29,23.30
2010,08,15,03,30,23.30
2010,08,15,03,31,23.30
2010,08,15,03,32,23.30
2010,08,15,03,33,23.40
2010,08,15,03,34,23.40
2010,08,15,03,35,23.40
2010,08,15,03,36,23.40
2010,08,15,03,37,23.40
2010,08,15,03,38,23.40
2010,08,15,03,39,23.40
2010,08,15,03,40,23.40
2010,08,15,03,41,23.30
2010,08,15,03,42,23.30
2010,08,15,03,43,23.30
2010,08,15,03,44,23.20
2010,08,15,03,45,23.20
2010,08,15,03,46,23.20
2010,08,15,03,47,23.10
2010,08,15,03,48,23.10
2010,08,15,03,49,23.00
2010,08,15,03,50,22.90
2010,08,15,03,51,22.90
2010,08,15,03,52,22.90
2010,08,15,03,53,22.90
2010,08,15,03,54,22.80
2010,08,15,03,55,22.80
2010,08,15,03,56,22.80
2010,08,15,03,57,22.80
2010,08,15,03,58,22.80
2010,08,15,03,59,22.80
2010,08,15,04,00,22.80
2010,08,15,04,01,22.80
2010,08,15,04,02,22.80
2010,08,15,04,03,22.80
2010,08,15,04,04,22.70
2010,08,15,04,05,22.70
2010,08,15,04,06,22.70
2010,08,15,04,07,22.70
2010,08,15,04,08,22.70
2010,08,15,04,09,22.60
2010,08,15,04,10,22.60
2010,08,15,04,11,22.60
2010,08,15,04,12,22.60
2010,08,15,04,13,22.60
2010,08,15,04,14,22.60
2010,08,15,04,15,22.50
2010,08,15,04,16,22.50
2010,08,15,04,17,22.50
2010,08,15,04,18,22.50
2010,08,15,04,19,22.50
2010,08,15,04,20,22.50
2010,08,15,04,21,22.50
2010,08,15,04,22,22.50
2010,08,15,04,23,22.40
2010,08,15,04,24,22.40
2010,08,15,04,25,22.50
2010,08,15,04,26,22.50
2010,08,15,04,27,22.50
2010,08,15,04,28,22.60
2010,08,15,04,29,22.60
2010,08,15,04,30,22.60
2010,08,15,04,31,22.60
2010,08,15,04,32,22.60
2010,08,15,04,33,22.60
2010,08,15,04,34,22.70
2010,08,15,04,35,22.60
2010,08,15,04,36,22.60
2010,08,15,04,37,22.60
2010,08,15,04,38,22.60
2010,08,15,04,39,22.60
2010,08,15,04,40,22.60
2010,08,15,04,41,22.60
2010,08,15,04,42,22.60
2010,08,15,04,43,22.70
2010,08,15,04,44,22.70
2010,08,15,04,45,22.70
2010,08,15,04,46,22.70
2010,08,15,04,47,22.80
2010,08,15,04,48,22.80
2010,08,15,04,49,22.80
2010,08,15,04,50,22.80
2010,08,15,04,51,22.80
2010,08,15,04,52,22.80
2010,08,15,04,53,22.90
2010,08,15,04,54,22.90
2010,08,15,04,55,22.90
2010,08,15,04,56,22.90
2010,08,15,04,57,22.90
2010,08,15,04,58,23.00
2010,08,15,04,59,23.00
2010,08,15,05,00,23.00
2010,08,15,05,01,23.00
2010,08,15,05,02,22.90
2010,08,15,05,03,22.90
2010,08,15,05,04,22.90
2010,08,15,05,05,22.90
2010,08,15,05,06,22.90
2010,08,15,05,07,22.80
2010,08,15,05,08,22.80
2010,08,15,05,09,22.70
2010,08,15,05,10,22.70
2010,08,15,05,11,22.60
2010,08,15,05,12,22.60
2010,08,15,05,13,22.50
2010,08,15,05,14,22.40
2010,08,15,05,15,22.40
2010,08,15,05,16,22.40
2010,08,15,05,17,22.40
2010,08,15,05,18,22.50
2010,08,15,05,19,22.50
2010,08,15,05,20,22.50
2010,08,15,05,21,22.60
2010,08,15,05,22,22.60
2010,08,15,05,23,22.70
2010,08,15,05,24,22.70
2010,08,15,05,25,22.70
2010,08,15,05,26,22.70
2010,08,15,05,27,22.70
2010,08,15,05,28,22.70
2010,08,15,05,29,22.70
2010,08,15,05,30,22.70
2010,08,15,05,31,22.70
2010,08,15,05,32,22.80
2010,08,15,05,33,22.80
2010,08,15,05,34,22.80
2010,08,15,05,35,22.80
2010,08,15,05,36,22.80
2010,08,15,05,37,22.80
2010,08,15,05,38,22.80
2010,08,15,05,39,22.80
2010,08,15,05,40,22.80
2010,08,15,05,41,22.80
2010,08,15,05,42,22.80
2010,08,15,05,43,22.70
2010,08,15,05,44,22.70
2010,08,15,05,45,22.70
2010,08,15,05,46,22.70
2010,08,15,05,47,22.70
2010,08,15,05,48,22.70
2010,08,15,05,49,22.70
2010,08,15,05,50,22.70
2010,08,15,05,51,22.70
2010,08,15,05,52,22.70
2010,08,15,05,53,22.70
2010,08,15,05,54,22.70
2010,08,15,05,55,22.60
2010,08,15,05,56,22.70
2010,08,15,05,57,22.60
2010,08,15,05,58,22.60
2010,08,15,05,59,22.60
2010,08,15,06,00,22.50
2010,08,15,06,01,22.50
2010,08,15,06,02,22.50
2010,08,15,06,03,22.40
2010,08,15,06,04,22.40
2010,08,15,06,05,22.50
2010,08,15,06,06,22.50
2010,08,15,06,07,22.60
2010,08,15,06,08,22.60
2010,08,15,06,09,22.60
2010,08,15,06,10,22.60
2010,08,15,06,11,22.60
2010,08,15,06,12,22.60
2010,08,15,06,13,22.50
2010,08,15,06,14,22.50
2010,08,15,06,15,22.50
2010,08,15,06,16,22.40
2010,08,15,06,17,22.40
2010,08,15,06,18,22.40
2010,08,15,06,19,22.40
2010,08,15,06,20,22.30
2010,08,15,06,21,22.30
2010,08,15,06,22,22.30
2010,08,15,06,23,22.40
2010,08,15,06,24,22.40
2010,08,15,06,25,22.40
2010,08,15,06,26,22.50
2010,08,15,06,27,22.50
2010,08,15,06,28,22.50
2010,08,15,06,29,22.50
2010,08,15,06,30,22.50
2010,08,15,06,31,22.60
2010,08,15,06,32,22.60
2010,08,15,06,33,22.60
2010,08,15,06,34,22.60
2010,08,15,06,35,22.60
2010,08,15,06,36,22.60
2010,08,15,06,37,22.70
2010,08,15,06,38,22.70
2010,08,15,06,39,22.70
2010,08,15,06,40,22.70
2010,08,15,06,41,22.70
2010,08,15,06,42,22.70
2010,08,15,06,43,22.70
2010,08,15,06,44,22.70
2010,08,15,06,45,22.80
2010,08,15,06,46,22.80
2010,08,15,06,47,22.80
2010,08,15,06,48,22.80
2010,08,15,06,49,22.80
2010,08,15,06,50,22.80
2010,08,15,06,51,22.80
2010,08,15,06,52,22.90
2010,08,15,06,53,22.90
2010,08,15,06,54,22.90
2010,08,15,06,55,23.00
2010,08,15,06,56,23.00
2010,08,15,06,57,23.00
2010,08,15,06,58,23.10
2010,08,15,06,59,23.10
2010,08,15,07,00,23.10
2010,08,15,07,01,23.10
2010,08,15,07,02,23.20
2010,08,15,07,03,23.20
2010,08,15,07,04,23.20
2010,08,15,07,05,23.20
2010,08,15,07,06,23.30
2010,08,15,07,07,23.40
2010,08,15,07,08,23.50
2010,08,15,07,09,23.50
2010,08,15,07,10,23.60
2010,08,15,07,11,23.70
2010,08,15,07,12,23.70
2010,08,15,07,13,23.80
2010,08,15,07,14,23.80
2010,08,15,07,15,23.80
2010,08,15,07,16,23.90
2010,08,15,07,17,23.90
2010,08,15,07,18,23.90
2010,08,15,07,19,23.90
2010,08,15,07,20,23.90
2010,08,15,07,21,23.80
2010,08,15,07,22,23.80
2010,08,15,07,23,23.80
2010,08,15,07,24,23.80
2010,08,15,07,25,23.80
2010,08,15,07,26,23.70
2010,08,15,07,27,23.70
2010,08,15,07,28,23.60
2010,08,15,07,29,23.50
2010,08,15,07,30,23.50
2010,08,15,07,31,23.40
2010,08,15,07,32,23.40
2010,08,15,07,33,23.30
2010,08,15,07,34,23.30
2010,08,15,07,35,23.30
2010,08,15,07,36,23.30
2010,08,15,07,37,23.30
2010,08,15,07,38,23.30
2010,08,15,07,39,23.30
2010,08,15,07,40,23.30
2010,08,15,07,41,23.40
2010,08,15,07,42,23.40
2010,08,15,07,43,23.40
2010,08,15,07,44,23.40
2010,08,15,07,45,23.50
2010,08,15,07,46,23.50
2010,08,15,07,47,23.60
2010,08,15,07,48,23.60
2010,08,15,07,49,23.70
2010,08,15,07,50,23.70
2010,08,15,07,51,23.80
2010,08,15,07,52,23.80
2010,08,15,07,53,23.90
2010,08,15,07,54,23.90
2010,08,15,07,55,24.00
2010,08,15,07,56,24.10
2010,08,15,07,57,24.20
2010,08,15,07,58,24.30
2010,08,15,07,59,24.40
2010,08,15,08,00,24.50
2010,08,15,08,01,24.60
2010,08,15,08,02,24.70
2010,08,15,08,03,24.80
2010,08,15,08,04,24.90
2010,08,15,08,05,25.00
2010,08,15,08,06,25.00
2010,08,15,08,07,25.10
2010,08,15,08,08,25.10
2010,08,15,08,09,25.10
2010,08,15,08,10,25.10
2010,08,15,08,11,25.10
2010,08,15,08,12,25.20
2010,08,15,08,13,25.20
2010,08,15,08,14,25.20
2010,08,15,08,15,25.20
2010,08,15,08,16,25.30
2010,08,15,08,17,25.30
2010,08,15,08,18,25.40
2010,08,15,08,19,25.40
2010,08,15,08,20,25.40
2010,08,15,08,21,25.50
2010,08,15,08,22,25.50
2010,08,15,08,23,25.60
2010,08,15,08,24,25.60
2010,08,15,08,25,25.60
2010,08,15,08,26,25.70
2010,08,15,08,27,25.70
2010,08,15,08,28,25.80
2010,08,15,08,29,25.80
2010,08,15,08,30,25.90
2010,08,15,08,31,25.90
2010,08,15,08,32,25.90
2010,08,15,08,33,25.90
2010,08,15,08,34,26.00
2010,08,15,08,35,26.10
2010,08,15,08,36,26.10
2010,08,15,08,37,26.10
2010,08,15,08,38,26.00
2010,08,15,08,39,26.00
2010,08,15,08,40,25.90
2010,08,15,08,41,25.90
2010,08,15,08,42,25.90
2010,08,15,08,43,25.90
2010,08,15,08,44,25.80
2010,08,15,08,45,25.70
2010,08,15,08,46,25.60
2010,08,15,08,47,25.50
2010,08,15,08,48,25.40
2010,08,15,08,49,25.30
2010,08,15,08,50,25.30
2010,08,15,08,51,25.30
2010,08,15,08,52,25.30
2010,08,15,08,53,25.30
2010,08,15,08,54,25.30
2010,08,15,08,55,25.40
2010,08,15,08,56,25.50
2010,08,15,08,57,25.50
2010,08,15,08,58,25.60
2010,08,15,08,59,25.50
2010,08,15,09,00,25.40
2010,08,15,09,01,25.30
2010,08,15,09,02,25.30
2010,08,15,09,03,25.30
2010,08,15,09,04,25.30
2010,08,15,09,05,25.30
2010,08,15,09,06,25.40
2010,08,15,09,07,25.40
2010,08,15,09,08,25.30
2010,08,15,09,09,25.30
2010,08,15,09,10,25.40
2010,08,15,09,11,25.40
2010,08,15,09,12,25.30
2010,08,15,09,13,25.40
2010,08,15,09,14,25.40
2010,08,15,09,15,25.50
2010,08,15,09,16,25.40
2010,08,15,09,17,25.40
2010,08,15,09,18,25.40
2010,08,15,09,19,25.40
2010,08,15,09,20,25.40
2010,08,15,09,21,25.40
2010,08,15,09,22,25.40
2010,08,15,09,23,25.40
2010,08,15,09,24,25.50
2010,08,15,09,25,25.60
2010,08,15,09,26,25.70
2010,08,15,09,27,25.90
2010,08,15,09,28,26.00
2010,08,15,09,29,26.20
2010,08,15,09,30,26.30
2010,08,15,09,31,26.40
2010,08,15,09,32,26.50
2010,08,15,09,33,26.50
2010,08,15,09,34,26.50
2010,08,15,09,35,26.40
2010,08,15,09,36,26.40
2010,08,15,09,37,26.30
2010,08,15,09,38,26.40
2010,08,15,09,39,26.40
2010,08,15,09,40,26.30
2010,08,15,09,41,26.20
2010,08,15,09,42,26.10
2010,08,15,09,43,26.10
2010,08,15,09,44,26.20
2010,08,15,09,45,26.30
2010,08,15,09,46,26.40
2010,08,15,09,47,26.50
2010,08,15,09,48,26.70
2010,08,15,09,49,26.70
2010,08,15,09,50,26.70
2010,08,15,09,51,26.70
2010,08,15,09,52,26.70
2010,08,15,09,53,26.70
2010,08,15,09,54,26.70
2010,08,15,09,55,26.80
2010,08,15,09,56,26.80
2010,08,15,09,57,27.00
2010,08,15,09,58,27.00
2010,08,15,09,59,27.00
2010,08,15,10,00,27.10
2010,08,15,10,01,27.20
2010,08,15,10,02,27.30
2010,08,15,10,03,27.40
2010,08,15,10,04,27.50
2010,08,15,10,05,27.50
2010,08,15,10,06,27.60
2010,08,15,10,07,27.50
2010,08,15,10,08,27.30
2010,08,15,10,09,27.30
2010,08,15,10,10,27.30
2010,08,15,10,11,27.30
2010,08,15,10,12,27.30
2010,08,15,10,13,27.20
2010,08,15,10,14,27.10
2010,08,15,10,15,27.00
2010,08,15,10,16,27.00
2010,08,15,10,17,27.00
2010,08,15,10,18,26.90
2010,08,15,10,19,26.80
2010,08,15,10,20,26.80
2010,08,15,10,21,26.70
2010,08,15,10,22,26.70
2010,08,15,10,23,26.70
2010,08,15,10,24,26.70
2010,08,15,10,25,26.70
2010,08,15,10,26,26.70
2010,08,15,10,27,26.70
2010,08,15,10,28,26.70
2010,08,15,10,29,26.70
2010,08,15,10,30,26.60
2010,08,15,10,31,26.50
2010,08,15,10,32,26.50
2010,08,15,10,33,26.50
2010,08,15,10,34,26.40
2010,08,15,10,35,26.30
2010,08,15,10,36,26.10
2010,08,15,10,37,26.10
2010,08,15,10,38,26.10
2010,08,15,10,39,26.10
2010,08,15,10,40,26.10
2010,08,15,10,41,26.10
2010,08,15,10,42,26.20
2010,08,15,10,43,26.20
2010,08,15,10,44,26.20
2010,08,15,10,45,26.20
2010,08,15,10,46,26.30
2010,08,15,10,47,26.30
2010,08,15,10,48,26.30
2010,08,15,10,49,26.30
2010,08,15,10,50,26.30
2010,08,15,10,51,26.30
2010,08,15,10,52,26.30
2010,08,15,10,53,26.30
2010,08,15,10,54,26.20
2010,08,15,10,55,26.20
2010,08,15,10,56,26.20
2010,08,15,10,57,26.30
2010,08,15,10,58,26.40
2010,08,15,10,59,26.60
2010,08,15,11,00,26.60
2010,08,15,11,01,26.70
2010,08,15,11,02,26.70
2010,08,15,11,03,26.70
2010,08,15,11,04,26.70
2010,08,15,11,05,26.60
2010,08,15,11,06,26.60
2010,08,15,11,07,26.50
2010,08,15,11,08,26.50
2010,08,15,11,09,26.60
2010,08,15,11,10,26.50
2010,08,15,11,11,26.40
2010,08,15,11,12,26.50
2010,08,15,11,13,26.60
2010,08,15,11,14,26.60
2010,08,15,11,15,26.70
2010,08,15,11,16,26.80
2010,08,15,11,17,26.80
2010,08,15,11,18,26.80
2010,08,15,11,19,26.80
2010,08,15,11,20,26.70
2010,08,15,11,21,26.60
2010,08,15,11,22,26.60
2010,08,15,11,23,26.50
2010,08,15,11,24,26.40
2010,08,15,11,25,26.40
2010,08,15,11,26,26.40
2010,08,15,11,27,26.50
2010,08,15,11,28,26.70
2010,08,15,11,29,26.80
2010,08,15,11,30,26.90
2010,08,15,11,31,27.00
2010,08,15,11,32,27.00
2010,08,15,11,33,27.00
2010,08,15,11,34,26.90
2010,08,15,11,35,26.90
2010,08,15,11,36,27.00
2010,08,15,11,37,27.00
2010,08,15,11,38,26.90
2010,08,15,11,39,27.00
2010,08,15,11,40,27.00
2010,08,15,11,41,27.00
2010,08,15,11,42,26.90
2010,08,15,11,43,26.90
2010,08,15,11,44,26.90
2010,08,15,11,45,27.00
2010,08,15,11,46,27.20
2010,08,15,11,47,27.30
2010,08,15,11,48,27.40
2010,08,15,11,49,27.50
2010,08,15,11,50,27.60
2010,08,15,11,51,27.70
2010,08,15,11,52,27.80
2010,08,15,11,53,28.00
2010,08,15,11,54,28.00
2010,08,15,11,55,28.00
2010,08,15,11,56,28.00
2010,08,15,11,57,28.00
2010,08,15,11,58,28.00
2010,08,15,11,59,27.80
2010,08,15,12,00,27.70
2010,08,15,12,01,27.70
2010,08,15,12,02,27.80
2010,08,15,12,03,27.80
2010,08,15,12,04,27.80
2010,08,15,12,05,27.80
2010,08,15,12,06,27.80
2010,08,15,12,07,27.80
2010,08,15,12,08,27.80
2010,08,15,12,09,27.80
2010,08,15,12,10,27.80
2010,08,15,12,11,27.80
2010,08,15,12,12,27.90
2010,08,15,12,13,27.90
2010,08,15,12,14,27.90
2010,08,15,12,15,27.90
2010,08,15,12,16,27.90
2010,08,15,12,17,27.80
2010,08,15,12,18,27.90
2010,08,15,12,19,27.90
2010,08,15,12,20,28.00
2010,08,15,12,21,28.10
2010,08,15,12,22,28.10
2010,08,15,12,23,28.20
2010,08,15,12,24,28.30
2010,08,15,12,25,28.40
2010,08,15,12,26,28.50
2010,08,15,12,27,28.70
2010,08,15,12,28,28.80
2010,08,15,12,29,28.90
2010,08,15,12,30,29.10
2010,08,15,12,31,29.20
2010,08,15,12,32,29.40
2010,08,15,12,33,29.40
2010,08,15,12,34,29.30
2010,08,15,12,35,29.10
2010,08,15,12,36,29.00
2010,08,15,12,37,28.90
2010,08,15,12,38,29.00
2010,08,15,12,39,29.10
2010,08,15,12,40,29.10
2010,08,15,12,41,29.00
2010,08,15,12,42,28.90
2010,08,15,12,43,28.90
2010,08,15,12,44,28.90
2010,08,15,12,45,29.00
2010,08,15,12,46,29.10
2010,08,15,12,47,29.20
2010,08,15,12,48,29.30
2010,08,15,12,49,29.40
2010,08,15,12,50,29.60
2010,08,15,12,51,29.80
2010,08,15,12,52,29.80
2010,08,15,12,53,29.80
2010,08,15,12,54,29.70
2010,08,15,12,55,29.60
2010,08,15,12,56,29.60
2010,08,15,12,57,29.70
2010,08,15,12,58,29.70
2010,08,15,12,59,29.70
2010,08,15,13,00,29.60
2010,08,15,13,01,29.50
2010,08,15,13,02,29.40
2010,08,15,13,03,29.30
2010,08,15,13,04,29.30
2010,08,15,13,05,29.30
2010,08,15,13,06,29.40
2010,08,15,13,07,29.40
2010,08,15,13,08,29.50
2010,08,15,13,09,29.50
2010,08,15,13,10,29.40
2010,08,15,13,11,29.40
2010,08,15,13,12,29.30
2010,08,15,13,13,29.30
2010,08,15,13,14,29.40
2010,08,15,13,15,29.50
2010,08,15,13,16,29.70
2010,08,15,13,17,29.90
2010,08,15,13,18,30.00
2010,08,15,13,19,30.10
2010,08,15,13,20,30.00
2010,08,15,13,21,29.80
2010,08,15,13,22,29.80
2010,08,15,13,23,29.70
2010,08,15,13,24,29.70
2010,08,15,13,25,29.70
2010,08,15,13,26,29.70
2010,08,15,13,27,29.70
2010,08,15,13,28,29.80
2010,08,15,13,29,29.90
2010,08,15,13,30,30.00
2010,08,15,13,31,30.00
2010,08,15,13,32,30.00
2010,08,15,13,33,30.00
2010,08,15,13,34,30.00
2010,08,15,13,35,30.00
2010,08,15,13,36,30.00
2010,08,15,13,37,30.00
2010,08,15,13,38,30.00
2010,08,15,13,39,30.10
2010,08,15,13,40,30.10
2010,08,15,13,41,30.10
2010,08,15,13,42,30.00
2010,08,15,13,43,29.90
2010,08,15,13,44,29.80
2010,08,15,13,45,29.90
2010,08,15,13,46,30.00
2010,08,15,13,47,30.10
2010,08,15,13,48,30.20
2010,08,15,13,49,30.30
2010,08,15,13,50,30.30
2010,08,15,13,51,30.40
2010,08,15,13,52,30.40
2010,08,15,13,53,30.30
2010,08,15,13,54,30.10
2010,08,15,13,55,30.00
2010,08,15,13,56,29.90
2010,08,15,13,57,30.00
2010,08,15,13,58,30.10
2010,08,15,13,59,30.10
2010,08,15,14,00,30.20
2010,08,15,14,01,30.20
2010,08,15,14,02,30.20
2010,08,15,14,03,30.20
2010,08,15,14,04,30.10
2010,08,15,14,05,30.00
2010,08,15,14,06,29.90
2010,08,15,14,07,29.90
2010,08,15,14,08,29.90
2010,08,15,14,09,30.00
2010,08,15,14,10,30.10
2010,08,15,14,11,30.10
2010,08,15,14,12,30.10
2010,08,15,14,13,30.10
2010,08,15,14,14,30.10
2010,08,15,14,15,30.30
2010,08,15,14,16,30.40
2010,08,15,14,17,30.60
2010,08,15,14,18,30.60
2010,08,15,14,19,30.60
2010,08,15,14,20,30.60
2010,08,15,14,21,30.70
2010,08,15,14,22,30.70
2010,08,15,14,23,30.80
2010,08,15,14,24,30.70
2010,08,15,14,25,30.60
2010,08,15,14,26,30.60
2010,08,15,14,27,30.60
2010,08,15,14,28,30.70
2010,08,15,14,29,30.80
2010,08,15,14,30,30.80
2010,08,15,14,31,30.90
2010,08,15,14,32,31.10
2010,08,15,14,33,31.30
2010,08,15,14,34,31.30
2010,08,15,14,35,31.40
2010,08,15,14,36,31.50
2010,08,15,14,37,31.60
2010,08,15,14,38,31.70
2010,08,15,14,39,31.80
2010,08,15,14,40,31.90
2010,08,15,14,41,32.00
2010,08,15,14,42,32.00
2010,08,15,14,43,32.10
2010,08,15,14,44,32.10
2010,08,15,14,45,32.10
2010,08,15,14,46,32.10
2010,08,15,14,47,32.10
2010,08,15,14,48,32.10
2010,08,15,14,49,32.20
2010,08,15,14,50,32.30
2010,08,15,14,51,32.30
2010,08,15,14,52,32.40
2010,08,15,14,53,32.40
2010,08,15,14,54,32.40
2010,08,15,14,55,32.50
2010,08,15,14,56,32.60
2010,08,15,14,57,32.60
2010,08,15,14,58,32.60
2010,08,15,14,59,32.60
2010,08,15,15,00,32.60
2010,08,15,15,01,32.60
2010,08,15,15,02,32.60
2010,08,15,15,03,32.60
2010,08,15,15,04,32.60
2010,08,15,15,05,32.70
2010,08,15,15,06,32.70
2010,08,15,15,07,32.70
2010,08,15,15,08,32.70
2010,08,15,15,09,32.70
2010,08,15,15,10,32.70
2010,08,15,15,11,32.70
2010,08,15,15,12,32.70
2010,08,15,15,13,32.60
2010,08,15,15,14,32.50
2010,08,15,15,15,32.50
2010,08,15,15,16,32.50
2010,08,15,15,17,32.50
2010,08,15,15,18,32.60
2010,08,15,15,19,32.60
2010,08,15,15,20,32.60
2010,08,15,15,21,32.60
2010,08,15,15,22,32.60
2010,08,15,15,23,32.60
2010,08,15,15,24,32.60
2010,08,15,15,25,32.60
2010,08,15,15,26,32.40
2010,08,15,15,27,32.30
2010,08,15,15,28,32.30
2010,08,15,15,29,32.30
2010,08,15,15,30,32.30
2010,08,15,15,31,32.40
2010,08,15,15,32,32.40
2010,08,15,15,33,32.40
2010,08,15,15,34,32.40
2010,08,15,15,35,32.40
2010,08,15,15,36,32.40
2010,08,15,15,37,32.30
2010,08,15,15,38,32.30
2010,08,15,15,39,32.30
2010,08,15,15,40,32.20
2010,08,15,15,41,32.20
2010,08,15,15,42,32.30
2010,08,15,15,43,32.30
2010,08,15,15,44,32.40
2010,08,15,15,45,32.50
2010,08,15,15,46,32.50
2010,08,15,15,47,32.50
2010,08,15,15,48,32.40
2010,08,15,15,49,32.40
2010,08,15,15,50,32.50
2010,08,15,15,51,32.50
2010,08,15,15,52,32.50
2010,08,15,15,53,32.50
2010,08,15,15,54,32.40
2010,08,15,15,55,32.30
2010,08,15,15,56,32.20
2010,08,15,15,57,32.20
2010,08,15,15,58,32.20
2010,08,15,15,59,32.20
2010,08,15,16,00,32.20
2010,08,15,16,01,32.30
2010,08,15,16,02,32.30
2010,08,15,16,03,32.40
2010,08,15,16,04,32.50
2010,08,15,16,05,32.60
2010,08,15,16,06,32.60
2010,08,15,16,07,32.60
2010,08,15,16,08,32.60
2010,08,15,16,09,32.60
2010,08,15,16,10,32.60
2010,08,15,16,11,32.60
2010,08,15,16,12,32.60
2010,08,15,16,13,32.60
2010,08,15,16,14,32.60
2010,08,15,16,15,32.60
2010,08,15,16,16,32.60
2010,08,15,16,17,32.60
2010,08,15,16,18,32.60
2010,08,15,16,19,32.60
2010,08,15,16,20,32.70
2010,08,15,16,21,32.70
2010,08,15,16,22,32.60
2010,08,15,16,23,32.70
2010,08,15,16,24,32.70
2010,08,15,16,25,32.80
2010,08,15,16,26,32.80
2010,08,15,16,27,32.80
2010,08,15,16,28,32.80
2010,08,15,16,29,32.80
2010,08,15,16,30,32.80
2010,08,15,16,31,32.80
2010,08,15,16,32,32.70
2010,08,15,16,33,32.60
2010,08,15,16,34,32.50
2010,08,15,16,35,32.50
2010,08,15,16,36,32.50
2010,08,15,16,37,32.50
2010,08,15,16,38,32.60
2010,08,15,16,39,32.60
2010,08,15,16,40,32.60
2010,08,15,16,41,32.60
2010,08,15,16,42,32.60
2010,08,15,16,43,32.70
2010,08,15,16,44,32.80
2010,08,15,16,45,32.80
2010,08,15,16,46,32.80
2010,08,15,16,47,32.80
2010,08,15,16,48,32.90
2010,08,15,16,49,32.90
2010,08,15,16,50,32.90
2010,08,15,16,51,33.00
2010,08,15,16,52,33.00
2010,08,15,16,53,32.80
2010,08,15,16,54,32.60
2010,08,15,16,55,32.40
2010,08,15,16,56,32.30
2010,08,15,16,57,32.20
2010,08,15,16,58,32.20
2010,08,15,16,59,32.20
2010,08,15,17,00,32.20
2010,08,15,17,01,32.20
2010,08,15,17,02,32.10
2010,08,15,17,03,32.00
2010,08,15,17,04,31.90
2010,08,15,17,05,31.80
2010,08,15,17,06,31.70
2010,08,15,17,07,31.60
2010,08,15,17,08,31.50
2010,08,15,17,09,31.50
2010,08,15,17,10,31.40
2010,08,15,17,11,31.40
2010,08,15,17,12,31.40
2010,08,15,17,13,31.40
2010,08,15,17,14,31.40
2010,08,15,17,15,31.40
2010,08,15,17,16,31.40
2010,08,15,17,17,31.50
2010,08,15,17,18,31.50
2010,08,15,17,19,31.50
2010,08,15,17,20,31.50
2010,08,15,17,21,31.60